Time,TemperatureF,DewpointF,PressureIn,WindDirection,WindDirectionDegrees,WindSpeedMPH,WindSpeedGustMPH,Humidity,HourlyPrecipIn,Conditions,Clouds,dailyrainin,SoftwareType,DateUTC
2013-04-20 00:08:00,71.0,12.0,30.07,SW,227,6.0,10.0,10,0.00,,,0.00,weatherlink.com 1.10,2013-04-20 07:08:00,
2013-04-20 00:23:00,70.8,11.0,30.07,WSW,246,3.0,10.0,10,0.00,,,0.00,weatherlink.com 1.10,2013-04-20 07:23:00,
2013-04-20 00:38:00,70.4,11.0,30.07,WSW,253,5.0,9.0,10,0.00,,,0.00,weatherlink.com 1.10,2013-04-20 07:38:00,
2013-04-20 00:53:00,69.5,13.0,30.07,West,280,1.0,4.0,11,0.00,,,0.00,weatherlink.com 1.10,2013-04-20 07:53:00,
2013-04-20 01:08:00,66.6,14.0,30.07,NNW,347,0.0,2.0,13,0.00,,,0.00,weatherlink.com 1.10,2013-04-20 08:08:00,
2013-04-20 01:23:00,64.5,17.0,30.08,NW,321,0.0,2.0,16,0.00,,,0.00,weatherlink.com 1.10,2013-04-20 08:23:00,
2013-04-20 01:38:00,63.1,16.0,30.08,NNW,327,0.0,2.0,16,0.00,,,0.00,weatherlink.com 1.10,2013-04-20 08:38:00,
2013-04-20 01:53:00,63.7,15.0,30.07,NW,324,0.0,4.0,15,0.00,,,0.00,weatherlink.com 1.10,2013-04-20 08:53:00,
2013-04-20 02:08:00,63.6,16.0,30.08,NW,324,0.0,1.0,16,0.00,,,0.00,weatherlink.com 1.10,2013-04-20 09:08:00,
2013-04-20 02:23:00,62.1,18.0,30.07,NW,324,0.0,1.0,18,0.00,,,0.00,weatherlink.com 1.10,2013-04-20 09:23:00,
2013-04-20 02:38:00,61.4,16.0,30.07,NW,311,1.0,1.0,17,0.00,,,0.00,weatherlink.com 1.10,2013-04-20 09:38:00,
2013-04-20 02:53:00,62.1,17.0,30.07,West,263,0.0,5.0,17,0.00,,,0.00,weatherlink.com 1.10,2013-04-20 09:53:00,
2013-04-20 03:08:00,62.1,17.0,30.07,WSW,257,1.0,4.0,17,0.00,,,0.00,weatherlink.com 1.10,2013-04-20 10:08:00,
2013-04-20 03:23:00,62.7,14.0,30.07,NW,321,0.0,5.0,15,0.00,,,0.00,weatherlink.com 1.10,2013-04-20 10:23:00,
2013-04-20 03:38:00,62.6,16.0,30.08,NW,323,0.0,2.0,16,0.00,,,0.00,weatherlink.com 1.10,2013-04-20 10:38:00,
2013-04-20 03:53:00,61.3,16.0,30.08,WNW,283,1.0,2.0,17,0.00,,,0.00,weatherlink.com 1.10,2013-04-20 10:53:00,
2013-04-20 04:08:00,61.6,13.0,30.08,NW,318,1.0,3.0,15,0.00,,,0.00,weatherlink.com 1.10,2013-04-20 11:08:00,
2013-04-20 04:23:00,61.5,20.0,30.11,NNE,32,0.0,9.0,20,0.00,,,0.00,weatherlink.com 1.10,2013-04-20 11:23:00,
2013-04-20 04:38:00,60.5,18.0,30.12,NE,34,0.0,1.0,19,0.00,,,0.00,weatherlink.com 1.10,2013-04-20 11:38:00,
2013-04-20 04:53:00,59.4,19.0,30.12,NNE,24,0.0,2.0,21,0.00,,,0.00,weatherlink.com 1.10,2013-04-20 11:53:00,
2013-04-20 05:09:00,58.3,20.0,30.13,NNE,24,0.0,0.0,23,0.00,,,0.00,weatherlink.com 1.10,2013-04-20 12:09:00,
2013-04-20 05:24:00,57.9,22.0,30.13,WSW,244,0.0,4.0,25,0.00,,,0.00,weatherlink.com 1.10,2013-04-20 12:24:00,
2013-04-20 05:39:00,57.1,22.0,30.14,WSW,244,0.0,1.0,26,0.00,,,0.00,weatherlink.com 1.10,2013-04-20 12:39:00,
2013-04-20 05:54:00,56.6,22.0,30.14,WSW,244,0.0,1.0,26,0.00,,,0.00,weatherlink.com 1.10,2013-04-20 12:54:00,
2013-04-20 06:09:00,56.1,21.0,30.16,WSW,244,0.0,0.0,25,0.00,,,0.00,weatherlink.com 1.10,2013-04-20 13:09:00,
2013-04-20 06:24:00,56.4,21.0,30.16,WSW,244,0.0,0.0,25,0.00,,,0.00,weatherlink.com 1.10,2013-04-20 13:24:00,
2013-04-20 06:39:00,57.7,22.0,30.17,WSW,244,0.0,1.0,25,0.00,,,0.00,weatherlink.com 1.10,2013-04-20 13:39:00,
2013-04-20 06:54:00,59.3,22.0,30.18,WSW,244,0.0,2.0,24,0.00,,,0.00,weatherlink.com 1.10,2013-04-20 13:54:00,
2013-04-20 07:09:00,60.7,25.0,30.18,WSW,244,0.0,0.0,25,0.00,,,0.00,weatherlink.com 1.10,2013-04-20 14:09:00,
2013-04-20 07:24:00,63.2,27.0,30.18,WSW,244,0.0,2.0,25,0.00,,,0.00,weatherlink.com 1.10,2013-04-20 14:24:00,
2013-04-20 07:39:00,66.4,30.0,30.18,NE,40,2.0,8.0,26,0.00,,,0.00,weatherlink.com 1.10,2013-04-20 14:39:00,
2013-04-20 07:54:00,67.7,30.0,30.19,East,80,1.0,7.0,24,0.00,,,0.00,weatherlink.com 1.10,2013-04-20 14:54:00,
2013-04-20 08:09:00,67.9,28.0,30.19,ESE,107,0.0,3.0,22,0.00,,,0.00,weatherlink.com 1.10,2013-04-20 15:09:00,
2013-04-20 08:24:00,69.2,29.0,30.20,ESE,107,1.0,5.0,22,0.00,,,0.00,weatherlink.com 1.10,2013-04-20 15:24:00,
2013-04-20 08:39:00,70.5,31.0,30.20,ESE,111,0.0,5.0,23,0.00,,,0.00,weatherlink.com 1.10,2013-04-20 15:39:00,
2013-04-20 08:54:00,71.5,31.0,30.19,NE,46,3.0,6.0,22,0.00,,,0.00,weatherlink.com 1.10,2013-04-20 15:54:00,
2013-04-20 09:09:00,72.0,30.0,30.19,NE,42,7.0,11.0,21,0.00,,,0.00,weatherlink.com 1.10,2013-04-20 16:09:00,
2013-04-20 09:24:00,72.6,30.0,30.19,ESE,102,3.0,10.0,21,0.00,,,0.00,weatherlink.com 1.10,2013-04-20 16:24:00,
2013-04-20 09:39:00,73.2,30.0,30.20,NNE,13,2.0,8.0,20,0.00,,,0.00,weatherlink.com 1.10,2013-04-20 16:39:00,
2013-04-20 09:54:00,73.8,29.0,30.19,East,86,6.0,11.0,19,0.00,,,0.00,weatherlink.com 1.10,2013-04-20 16:54:00,
2013-04-20 10:09:00,74.4,31.0,30.19,NE,53,4.0,9.0,20,0.00,,,0.00,weatherlink.com 1.10,2013-04-20 17:09:00,
2013-04-20 10:24:00,75.1,30.0,30.18,ENE,74,2.0,8.0,19,0.00,,,0.00,weatherlink.com 1.10,2013-04-20 17:24:00,
2013-04-20 10:39:00,75.6,29.0,30.18,East,92,2.0,9.0,18,0.00,,,0.00,weatherlink.com 1.10,2013-04-20 17:39:00,
2013-04-20 10:54:00,76.5,30.0,30.18,ENE,77,2.0,10.0,18,0.00,,,0.00,weatherlink.com 1.10,2013-04-20 17:54:00,
2013-04-20 11:09:00,77.4,31.0,30.18,ENE,72,3.0,7.0,18,0.00,,,0.00,weatherlink.com 1.10,2013-04-20 18:09:00,
2013-04-20 11:24:00,77.6,31.0,30.18,NE,48,2.0,8.0,18,0.00,,,0.00,weatherlink.com 1.10,2013-04-20 18:24:00,
2013-04-20 11:39:00,78.2,30.0,30.17,East,88,0.0,9.0,17,0.00,,,0.00,weatherlink.com 1.10,2013-04-20 18:39:00,
2013-04-20 11:54:00,79.5,29.0,30.16,NNE,13,2.0,7.0,16,0.00,,,0.00,weatherlink.com 1.10,2013-04-20 18:54:00,
2013-04-20 12:09:00,79.5,28.0,30.15,SSW,208,0.0,3.0,15,0.00,,,0.00,weatherlink.com 1.10,2013-04-20 19:09:00,
2013-04-20 12:24:00,79.9,30.0,30.14,ENE,68,4.0,10.0,16,0.00,,,0.00,weatherlink.com 1.10,2013-04-20 19:24:00,
2013-04-20 12:39:00,79.5,28.0,30.14,ENE,57,1.0,6.0,15,0.00,,,0.00,weatherlink.com 1.10,2013-04-20 19:39:00,
2013-04-20 12:54:00,81.0,29.0,30.13,NNE,21,5.0,7.0,15,0.00,,,0.00,weatherlink.com 1.10,2013-04-20 19:54:00,
2013-04-20 13:09:00,81.4,28.0,30.13,NE,38,4.0,4.0,14,0.00,,,0.00,weatherlink.com 1.10,2013-04-20 20:09:00,
2013-04-20 13:25:00,83.1,27.0,30.12,NE,52,3.0,8.0,13,0.00,,,0.00,weatherlink.com 1.10,2013-04-20 20:25:00,
2013-04-20 13:40:00,82.3,27.0,30.11,East,82,2.0,8.0,13,0.00,,,0.00,weatherlink.com 1.10,2013-04-20 20:40:00,
2013-04-20 13:55:00,82.9,25.0,30.11,ENE,57,1.0,6.0,12,0.00,,,0.00,weatherlink.com 1.10,2013-04-20 20:55:00,
2013-04-20 14:10:00,82.7,27.0,30.10,ENE,72,1.0,8.0,13,0.00,,,0.00,weatherlink.com 1.10,2013-04-20 21:10:00,
2013-04-20 14:25:00,83.5,24.0,30.09,North,355,0.0,3.0,11,0.00,,,0.00,weatherlink.com 1.10,2013-04-20 21:25:00,
2013-04-20 14:40:00,83.8,26.0,30.09,ENE,63,2.0,9.0,12,0.00,,,0.00,weatherlink.com 1.10,2013-04-20 21:40:00,
2013-04-20 14:55:00,83.6,26.0,30.08,ESE,109,4.0,6.0,12,0.00,,,0.00,weatherlink.com 1.10,2013-04-20 21:55:00,
2013-04-20 15:10:00,83.0,25.0,30.08,ENE,78,2.0,7.0,12,0.00,,,0.00,weatherlink.com 1.10,2013-04-20 22:10:00,
2013-04-20 15:25:00,84.3,24.0,30.07,East,88,0.0,5.0,11,0.00,,,0.00,weatherlink.com 1.10,2013-04-20 22:25:00,
2013-04-20 15:40:00,84.1,24.0,30.07,NE,34,2.0,6.0,11,0.00,,,0.00,weatherlink.com 1.10,2013-04-20 22:40:00,
2013-04-20 15:55:00,84.7,25.0,30.06,North,11,0.0,5.0,11,0.00,,,0.00,weatherlink.com 1.10,2013-04-20 22:55:00,
2013-04-20 16:10:00,85.2,23.0,30.06,NW,315,0.0,6.0,10,0.00,,,0.00,weatherlink.com 1.10,2013-04-20 23:10:00,
2013-04-20 16:25:00,85.3,23.0,30.05,ESE,123,1.0,3.0,10,0.00,,,0.00,weatherlink.com 1.10,2013-04-20 23:25:00,
2013-04-20 16:40:00,86.0,23.0,30.05,WSW,255,1.0,1.0,10,0.00,,,0.00,weatherlink.com 1.10,2013-04-20 23:40:00,
2013-04-20 16:55:00,85.1,23.0,30.05,NE,53,3.0,5.0,10,0.00,,,0.00,weatherlink.com 1.10,2013-04-20 23:55:00,
2013-04-20 17:10:00,84.3,22.0,30.05,SSW,194,0.0,3.0,10,0.00,,,0.00,weatherlink.com 1.10,2013-04-21 00:10:00,
2013-04-20 17:25:00,84.3,22.0,30.05,ESE,106,0.0,7.0,10,0.00,,,0.00,weatherlink.com 1.10,2013-04-21 00:25:00,
2013-04-20 17:40:00,83.7,22.0,30.05,ESE,105,0.0,3.0,10,0.00,,,0.00,weatherlink.com 1.10,2013-04-21 00:40:00,
2013-04-20 17:55:00,81.9,20.0,30.05,WSW,248,1.0,4.0,10,0.00,,,0.00,weatherlink.com 1.10,2013-04-21 00:55:00,
2013-04-20 18:10:00,81.0,22.0,30.04,NE,38,1.0,5.0,11,0.00,,,0.00,weatherlink.com 1.10,2013-04-21 01:10:00,
2013-04-20 18:25:00,80.6,21.0,30.04,ENE,64,0.0,3.0,11,0.00,,,0.00,weatherlink.com 1.10,2013-04-21 01:25:00,
2013-04-20 18:40:00,79.9,21.0,30.04,NE,49,2.0,3.0,11,0.00,,,0.00,weatherlink.com 1.10,2013-04-21 01:40:00,
2013-04-20 18:55:00,79.7,23.0,30.04,ENE,58,0.0,4.0,12,0.00,,,0.00,weatherlink.com 1.10,2013-04-21 01:55:00,
2013-04-20 19:10:00,79.2,20.0,30.04,ENE,71,3.0,3.0,11,0.00,,,0.00,weatherlink.com 1.10,2013-04-21 02:10:00,
2013-04-20 19:25:00,78.6,22.0,30.05,ENE,76,1.0,3.0,12,0.00,,,0.00,weatherlink.com 1.10,2013-04-21 02:25:00,
2013-04-20 19:40:00,77.8,21.0,30.05,ENE,68,0.0,1.0,12,0.00,,,0.00,weatherlink.com 1.10,2013-04-21 02:40:00,
2013-04-20 19:55:00,76.4,22.0,30.06,ENE,68,0.0,0.0,13,0.00,,,0.00,weatherlink.com 1.10,2013-04-21 02:55:00,
2013-04-20 20:10:00,75.1,23.0,30.06,ENE,68,0.0,0.0,14,0.00,,,0.00,weatherlink.com 1.10,2013-04-21 03:10:00,
2013-04-20 20:25:00,74.4,24.0,30.07,ENE,68,0.0,0.0,15,0.00,,,0.00,weatherlink.com 1.10,2013-04-21 03:25:00,
2013-04-20 20:40:00,73.4,23.0,30.07,ENE,68,0.0,0.0,15,0.00,,,0.00,weatherlink.com 1.10,2013-04-21 03:40:00,
2013-04-20 20:55:00,73.0,23.0,30.08,South,189,0.0,3.0,15,0.00,,,0.00,weatherlink.com 1.10,2013-04-21 03:55:00,
2013-04-20 21:10:00,73.2,23.0,30.08,South,189,0.0,0.0,15,0.00,,,0.00,weatherlink.com 1.10,2013-04-21 04:10:00,
2013-04-20 21:25:00,72.7,24.0,30.08,South,189,0.0,1.0,16,0.00,,,0.00,weatherlink.com 1.10,2013-04-21 04:25:00,
2013-04-20 21:40:00,72.3,25.0,30.09,South,189,0.0,0.0,17,0.00,,,0.00,weatherlink.com 1.10,2013-04-21 04:40:00,
2013-04-20 21:55:00,71.0,25.0,30.09,South,190,0.0,1.0,18,0.00,,,0.00,weatherlink.com 1.10,2013-04-21 04:55:00,
2013-04-20 22:10:00,68.3,28.0,30.09,South,190,0.0,1.0,22,0.00,,,0.00,weatherlink.com 1.10,2013-04-21 05:10:00,
2013-04-20 22:25:00,68.2,27.0,30.09,WNW,290,1.0,3.0,21,0.00,,,0.00,weatherlink.com 1.10,2013-04-21 05:25:00,
2013-04-20 22:40:00,67.7,27.0,30.09,NW,312,0.0,1.0,22,0.00,,,0.00,weatherlink.com 1.10,2013-04-21 05:40:00,
2013-04-20 22:55:00,66.6,26.0,30.09,NW,312,0.0,0.0,22,0.00,,,0.00,weatherlink.com 1.10,2013-04-21 05:55:00,
2013-04-20 23:10:00,66.7,27.0,30.09,NW,304,0.0,3.0,22,0.00,,,0.00,weatherlink.com 1.10,2013-04-21 06:10:00,
2013-04-20 23:25:00,67.7,26.0,30.10,WNW,296,2.0,2.0,21,0.00,,,0.00,weatherlink.com 1.10,2013-04-21 06:25:00,
2013-04-20 23:40:00,67.8,25.0,30.10,WSW,251,2.0,4.0,20,0.00,,,0.00,weatherlink.com 1.10,2013-04-21 06:40:00,
2013-04-20 23:55:00,66.7,27.0,30.10,WSW,251,0.0,2.0,22,0.00,,,0.00,weatherlink.com 1.10,2013-04-21 06:55:00,